This is the latest recevied weather packets stored in our database for station/object YU7OR-2. If no packets are shown the sender has not sent any weather packets the latest 10 day(s).
| Time | Temp. | Humidity | Pressure | Rain* | Wind** | Luminosity | Snow |
|---|---|---|---|---|---|---|---|
| 1777406019 | 12.22° C | 53% | 1015.1 hPa | 0 mm | - | - | - |
| 1777405724 | 12.22° C | 53% | 1015.1 hPa | 0 mm | - | - | - |
| 1777405474 | 12.22° C | 53% | 1015.2 hPa | 0 mm | - | - | - |
| 1777405229 | 12.78° C | 53% | 1015.2 hPa | 0 mm | - | - | - |
| 1777404984 | 12.78° C | 53% | 1015.2 hPa | 0 mm | - | - | - |
| 1777404699 | 12.78° C | 53% | 1015.2 hPa | 0 mm | - | - | - |
| 1777404449 | 12.78° C | 53% | 1015.2 hPa | 0 mm | - | - | - |
| 1777404180 | 12.78° C | 54% | 1015.2 hPa | 0 mm | - | - | - |
| 1777403904 | 13.33° C | 54% | 1015.2 hPa | 0 mm | - | - | - |
| 1777403649 | 13.33° C | 53% | 1015.2 hPa | 0 mm | - | - | - |
| 1777403399 | 13.89° C | 55% | 1015.4 hPa | 0 mm | - | - | - |
| 1777403144 | 14.44° C | 55% | 1015.2 hPa | 0 mm | - | - | - |
| 1777402884 | 14.44° C | 54% | 1015.2 hPa | 0 mm | - | - | - |
| 1777402644 | 14.44° C | 54% | 1015.2 hPa | 0 mm | - | - | - |
| 1777402369 | 15° C | 52% | 1015.3 hPa | 0 mm | - | - | - |
| 1777402109 | 15° C | 51% | 1015.1 hPa | 0 mm | - | - | - |
| 1777401819 | 15.56° C | 54% | 1015.2 hPa | 0 mm | - | - | - |
| 1777401529 | 15.56° C | 55% | 1014.9 hPa | 0 mm | - | - | - |
| 1777401282 | 15.56° C | 55% | 1015 hPa | 0 mm | - | - | - |
| 1777401044 | 16.11° C | 55% | 1015 hPa | 0 mm | - | - | - |
| 1777400794 | 16.11° C | 55% | 1015 hPa | 0 mm | - | - | - |
| 1777400519 | 16.11° C | 55% | 1014.9 hPa | 0 mm | - | - | - |
| 1777400269 | 16.11° C | 54% | 1014.7 hPa | 0 mm | - | - | - |
| 1777400009 | 16.67° C | 53% | 1015 hPa | 0 mm | - | - | - |
| 1777399764 | 16.67° C | 53% | 1014.9 hPa | 0 mm | - | - | - |
* Rain latest hour (hover to see other rain measurements)
** Current wind speed in m/s (hover to see current wind gust speed)